Regional Weather Roundup
Issued by NWS

Home | Current Version | Previous Version | Text Only | Print | Product List | Glossary On
Versions: 1 2 3 4 5 6 7 8 9 10 11 12 13 14 15 16 17 18 19 20 21 22 23 24 25 26 27 28 29 30 31 32 33 34 35 36 37 38 39 40 41 42 43 44 45 46 47 48 49 50
000
ASUS44 KBMX 070410
RWRAL

ALABAMA REGIONAL WEATHER ROUNDUP
NATIONAL WEATHER SERVICE BIRMINGHAM AL
1000 PM CST FRI MAR 06 2015

NOTE: "FAIR" INDICATES FEW OR NO CLOUDS BELOW 12,000 FEET
WITH NO SIGNIFICANT WEATHER AND/OR OBSTRUCTIONS TO VISIBILITY.

THE REMARK "TC" DENOTES TEMPERATURE IN DEGREES CELSIUS.

ALZ001>011-014-016>018-020-070500-
NORTH ALABAMA

CITY           SKY/WX    TMP DP  RH WIND       PRES   REMARKS
MUSCLE SHOALS  CLEAR     31  25  78 CALM      30.50S
HUNTSVILLE     CLEAR     31  26  82 CALM      30.48F
DECATUR        CLEAR     28  24  85 CALM      30.49F
HALEYVILLE       N/A     24  22  92 CALM      30.49F
GADSDEN        CLEAR     27  21  80 CALM      30.46F
$$

ALZ012-013-022-023-030>036-040>044-070500-
WEST CENTRAL ALABAMA

CITY           SKY/WX    TMP DP  RH WIND       PRES   REMARKS
TUSCALOOSA     CLEAR     33  20  58 N6        30.50S WCI  28
$$

ALZ015-024>027-033>036-040>044-070500-
CENTRAL ALABAMA

CITY           SKY/WX    TMP DP  RH WIND       PRES   REMARKS
BIRMINGHAM     CLEAR     32  17  54 CALM      30.49F
MONTGOMERY     CLEAR     38  28  67 NW3       30.47R
SHELBY CO ARPT CLEAR     37  17  44 N6        30.47S WCI  32
MAXWELL AFB    CLEAR     40  29  64 N5        30.45S
GREENVILLE     NOT AVBL
$$

ALZ019-021-028-029-037-038-045>048-070500-
EAST CENTRAL ALABAMA

CITY           SKY/WX    TMP DP  RH WIND       PRES   REMARKS
ANNISTON       CLEAR     36  19  50 NE3       30.47S
ALEXANDER CITY CLEAR     39  27  60 N3        30.45S
AUBURN         CLEAR     37  27  65 N7        30.45S WCI  32
$$

ALZ051>064-070500-
SOUTHWEST ALABAMA

CITY           SKY/WX    TMP DP  RH WIND       PRES   REMARKS
MOBILE         MOCLDY    41  20  43 N7        30.47S
BROOKLEY FIELD MOCLDY    43  25  49 N7        30.48S
EVERGREEN      PTCLDY    38  26  62 NW5       30.46R WCI  34
$$

ALZ049-050-065>069-070500-
SOUTHEAST ALABAMA

CITY           SKY/WX    TMP DP  RH WIND       PRES   REMARKS
DOTHAN         MOCLDY    41  37  86 CALM      30.46R
OZARK          MOCLDY    44  35  70 N3        30.43R
TROY           PTCLDY    39  31  72 N5        30.45R
EUFAULA        FAIR      36  33  89 CALM      30.42S
$$



USA.gov is the U.S. government's official web portal to all federal, state and local government web resources and services.